Location: Fontevrault
(47.1823°N, 0.0493°E)
Time: 11:42:34
(UTC+00:00)

Lacrosse 5 - Pass Details

Date: 26 October 2021
Orbit: 714 x 724 km, 57.0° (Epoch: 28 August)

Event Time Altitude Azimuth Distance (km) Brightness Sun altitude
Exits shadow 04:35:23 22° 205° (SSW) 1,536 3.3 -20.7°
Drops below altitude 10° 04:37:56 10° 179° (S) 2,193 4.3 -20.3°
Sets 04:40:37 0° 166° (SSE) 3,107 5.3 -19.8°
